Weather History for San Jose, CA

Change the Weather History Date:

Tuesday, November 1, 2011

  Actual Average Record
Temperature  
Mean Temperature 63 °F 61 °F  
Max Temperature 75 °F 72 °F 84 °F (2008)
Min Temperature 51 °F 50 °F 35 °F (1895)
Degree Days  
Heating Degree Days 2 5  
Month to date heating degree days 2 5  
Since 1 July heating degree days 61 87  
Cooling Degree Days 0 0  
Month to date cooling degree days 0 0  
Year to date cooling degree days 565 728  
Growing Degree Days 14 (Base 50)    
Moisture  
Dew Point 32 °F    
Average Humidity 52    
Maximum Humidity 93    
Minimum Humidity 11    
Precipitation  
Precipitation 0.00 in 0.06 in 0.52 in (2008)
Month to date precipitation 0.00 0.06  
Year to date precipitation 11.31 10.96  
Since 1 July precipitation 0.77 1.07  
Sea Level Pressure  
Sea Level Pressure 30.03 in    
Wind  
Wind Speed 6 mph (West)    
Max Wind Speed 22 mph    
Max Gust Speed 30 mph    
Visibility 10 miles    
Events      
T = Trace of Precipitation, MM = Missing Value Source: NWS Daily Summary

Daily Weather History Graph

Daily Weather History Graph

Search for Another Location

Airport:

Trip Planner

Search our weather history database for the weather conditions in past years. The results will help you decide how hot, cold, wet, or windy it might be!

Date:

Astronomy

Nov. 01, 2011 Rise Set
Actual Time 7:32 AM PDT 6:09 PM PDT
Civil Twilight 7:05 AM PDT 6:36 PM PDT
Nautical Twilight 6:34 AM PDT 7:07 PM PDT
Astronomical Twilight 6:03 AM PDT 7:38 PM PDT
Moon 1:20 PM PDT (11/1) 11:58 PM PDT (11/1)
Length of Visible Light 11h 31m
Length of Day
10h 37m
Waxing Crescent, 41% of the Moon is Illuminated
Nov 1
Waxing Crescent
Nov 2
First Quarter
Nov 10
Full
Nov 18
Last Quarter
Nov 24
New

Hourly Weather History & Observations

Time (PDT) Temp. Dew Point Humidity Pressure Visibility Wind Dir Wind Speed Gust Speed Precip Events Conditions
12:53 AM 57.0 °F 54.0 °F 89% 30.01 in 10.0 mi Calm Calm - N/A   Clear
1:53 AM 55.9 °F 53.1 °F 90% 30.00 in 10.0 mi Calm Calm - N/A   Clear
2:53 AM 55.0 °F 53.1 °F 93% 30.01 in 10.0 mi West 5.8 mph - N/A   Clear
3:53 AM 55.0 °F 52.0 °F 89% 30.01 in 10.0 mi South 4.6 mph - N/A   Clear
4:53 AM 54.0 °F 52.0 °F 93% 30.01 in 10.0 mi Calm Calm - N/A   Clear
5:53 AM 53.6 °F 51.8 °F 94% 30.02 in 10.0 mi WSW 3.5 mph - N/A   Clear
6:53 AM 55.9 °F 52.0 °F 87% 30.03 in 10.0 mi WSW 5.8 mph - N/A   Clear
7:53 AM 57.0 °F 46.9 °F 69% 30.04 in 10.0 mi SSW 4.6 mph - N/A   Partly Cloudy
8:53 AM 57.9 °F 45.0 °F 62% 30.07 in 10.0 mi SSW 3.5 mph - N/A   Partly Cloudy
9:53 AM 64.4 °F 33.8 °F 32% 30.08 in 10.0 mi West 3.5 mph - N/A   Partly Cloudy
10:53 AM 66.9 °F 30.9 °F 26% 30.08 in 10.0 mi South 8.1 mph - N/A   Partly Cloudy
11:53 AM 69.1 °F 28.0 °F 22% 30.06 in 10.0 mi SW 3.5 mph - N/A   Clear
12:53 PM 73.0 °F 21.9 °F 15% 30.04 in 10.0 mi NNW 11.5 mph 19.6 mph N/A   Clear
1:53 PM 73.0 °F 19.9 °F 14% 30.03 in 10.0 mi NNW 13.8 mph 27.6 mph N/A   Partly Cloudy
2:53 PM 75.0 °F 19.9 °F 13% 30.02 in 10.0 mi NW 17.3 mph 25.3 mph N/A   Partly Cloudy
3:53 PM 75.0 °F 19.9 °F 13% 30.01 in 10.0 mi NNW 12.7 mph - N/A   Partly Cloudy
4:53 PM 73.9 °F 15.1 °F 11% 30.01 in 10.0 mi NNW 11.5 mph - N/A   Partly Cloudy
5:53 PM 70.0 °F 12.9 °F 11% 30.02 in 10.0 mi NNW 8.1 mph 19.6 mph N/A   Scattered Clouds
6:53 PM 64.9 °F 15.1 °F 15% 30.02 in 10.0 mi WNW 10.4 mph 18.4 mph N/A   Partly Cloudy
7:53 PM 64.9 °F 14.0 °F 14% 30.03 in 10.0 mi NW 9.2 mph - N/A   Partly Cloudy
8:53 PM 63.0 °F 16.0 °F 16% 30.05 in 10.0 mi West 4.6 mph - N/A   Clear
9:53 PM 64.0 °F 14.0 °F 14% 30.06 in 10.0 mi Calm Calm - N/A   Clear
10:53 PM 60.1 °F 19.0 °F 20% 30.06 in 10.0 mi South 4.6 mph - N/A   Clear
11:53 PM 55.9 °F 19.0 °F 24% 30.06 in 10.0 mi SSE 3.5 mph - N/A   Clear